TimeEST,TemperatureF,Dew PointF,Humidity,Sea Level PressureIn,VisibilityMPH,Wind Direction,Wind SpeedMPH,Gust SpeedMPH,PrecipitationIn,Events,Conditions,WindDirDegrees,DateUTC
12:53 AM,9.0,-2.0,61,30.34,10.0,West,12.7,-,N/A,,Scattered Clouds,260,2013-01-23 05:53:00
1:53 AM,8.1,-2.0,64,30.33,10.0,WSW,10.4,-,N/A,,Mostly Cloudy,250,2013-01-23 06:53:00
2:53 AM,9.0,-2.0,61,30.32,10.0,WSW,9.2,-,N/A,,Clear,250,2013-01-23 07:53:00
3:53 AM,8.1,-2.0,64,30.33,10.0,WSW,10.4,-,N/A,,Clear,250,2013-01-23 08:53:00
4:53 AM,10.0,-0.9,61,30.31,10.0,WSW,10.4,-,N/A,,Overcast,240,2013-01-23 09:53:00
5:53 AM,10.9,-0.9,59,30.31,10.0,WSW,11.5,-,N/A,,Overcast,250,2013-01-23 10:53:00
6:53 AM,10.9,-0.9,59,30.31,10.0,WSW,11.5,-,N/A,,Overcast,240,2013-01-23 11:53:00
7:53 AM,10.9,-0.9,59,30.30,10.0,SW,11.5,-,N/A,,Overcast,230,2013-01-23 12:53:00
8:53 AM,12.0,-0.9,56,30.30,10.0,SW,9.2,-,N/A,,Overcast,230,2013-01-23 13:53:00
9:53 AM,14.0,-0.0,54,30.30,10.0,SW,12.7,-,N/A,,Overcast,220,2013-01-23 14:53:00
10:53 AM,15.1,1.0,54,30.29,10.0,WSW,15.0,-,N/A,,Overcast,240,2013-01-23 15:53:00
11:53 AM,16.0,-0.0,49,30.28,10.0,SW,12.7,-,N/A,,Overcast,230,2013-01-23 16:53:00
12:53 PM,17.1,1.0,50,30.24,10.0,SW,13.8,-,N/A,,Overcast,230,2013-01-23 17:53:00
1:53 PM,17.1,3.0,54,30.19,10.0,SW,15.0,-,N/A,,Overcast,220,2013-01-23 18:53:00
2:53 PM,18.0,3.0,52,30.17,10.0,WSW,11.5,-,N/A,,Overcast,240,2013-01-23 19:53:00
3:53 PM,18.0,6.1,60,30.16,10.0,WSW,11.5,-,N/A,,Overcast,240,2013-01-23 20:53:00
4:53 PM,18.0,8.1,65,30.14,5.0,WSW,9.2,-,0.00,Snow,Light Snow,240,2013-01-23 21:53:00
5:18 PM,17.6,8.6,68,30.09,2.5,SW,10.4,-,0.00,Snow,Light Snow,230,2013-01-23 22:18:00
5:27 PM,17.6,8.6,68,30.09,3.0,SW,11.5,-,0.00,Snow,Light Snow,230,2013-01-23 22:27:00
5:34 PM,17.6,8.6,68,30.09,3.0,SW,8.1,-,0.00,Snow,Light Snow,230,2013-01-23 22:34:00
5:53 PM,17.1,10.0,74,30.13,2.0,SW,9.2,-,0.00,Snow,Light Snow,230,2013-01-23 22:53:00
6:07 PM,17.6,10.4,73,30.08,3.0,SW,8.1,-,0.00,Snow,Light Snow,230,2013-01-23 23:07:00
6:53 PM,17.1,12.0,81,30.12,9.0,SW,8.1,-,0.00,,Overcast,230,2013-01-23 23:53:00
7:53 PM,18.0,10.9,74,30.11,4.0,WSW,12.7,-,0.00,Snow,Light Snow,240,2013-01-24 00:53:00
8:53 PM,18.0,12.0,78,30.11,8.0,WSW,10.4,-,0.00,,Overcast,250,2013-01-24 01:53:00
9:11 PM,19.4,12.2,74,30.07,4.0,West,15.0,23.0,0.00,Snow,Light Snow,260,2013-01-24 02:11:00
9:26 PM,19.4,12.2,74,30.07,2.5,West,18.4,24.2,0.00,Snow,Light Snow,260,2013-01-24 02:26:00
9:33 PM,19.4,12.2,74,30.07,1.8,West,15.0,24.2,0.00,Snow,Light Snow,270,2013-01-24 02:33:00
9:53 PM,19.0,14.0,81,30.12,1.8,West,16.1,24.2,0.00,Snow,Light Snow,260,2013-01-24 02:53:00
10:14 PM,19.4,15.8,86,30.08,0.8,West,15.0,-,0.00,Snow,Light Snow,280,2013-01-24 03:14:00
10:18 PM,19.4,15.8,86,30.08,1.0,West,15.0,-,0.00,Snow,Light Snow,280,2013-01-24 03:18:00
10:30 PM,19.4,14.0,80,30.08,2.0,WNW,13.8,-,0.00,Snow,Light Snow,290,2013-01-24 03:30:00
10:53 PM,19.0,14.0,81,30.13,2.0,WNW,13.8,-,0.00,Snow,Light Snow,300,2013-01-24 03:53:00
11:02 PM,19.4,14.0,80,30.09,1.2,NW,15.0,-,0.00,Snow,Light Snow,310,2013-01-24 04:02:00
11:07 PM,19.4,14.0,80,30.10,0.8,NW,17.3,24.2,0.00,Snow,Light Snow,310,2013-01-24 04:07:00
11:15 PM,19.4,14.0,80,30.10,1.0,NW,16.1,27.6,0.00,Snow,Light Snow,320,2013-01-24 04:15:00